{"data":{"norad_id":59313,"epoch":"2026-05-24T23:54:25.606080Z","epoch_age_seconds":71828,"freshness":"FRESH","line1":"1 59313U 24056T   26144.99612970  .00015486  00000+0  52208-3 0  9991","line2":"2 59313  43.0016 152.0410 0001198  80.8221 279.2767 15.30512587122912","mean_motion":15.30512587,"eccentricity":0.0001198,"inclination_deg":43.0016,"raan_deg":152.041,"arg_perigee_deg":80.8221,"mean_anomaly_deg":279.2767,"bstar":0.00052208,"rev_number":12291,"period_min":94.086125931351,"perigee_km":473.46098005093,"apogee_km":475.10281961933,"semimajor_km":6852.4188998351,"source":"CELESTRAK","updated_at":"2026-05-25T13:38:18.901058Z"}}